Location: Fredericksburg
(30.2750°N, 98.8720°W)
Time: 08:59:00
(UTC-05:00)

Daily predictions for brighter satellites

Satellite Brightness Start Highest point End
(mag) Time Altitude Azimuth Time Altitude Azimuth Time Altitude Azimuth
Cosmos 2112 Rocket 4.0 20:02:55 10° NNW 20:08:12 85° ENE 20:13:24 10° SSE
Cosmos 1437 Rocket 2.9 20:06:06 10° S 20:09:57 55° E 20:13:54 10° NNE
Delta 2 Rocket 4.4 20:06:36 10° WNW 20:11:18 43° N 20:15:27 10° ENE
Cosmos 990 Rocket 4.1 20:07:20 10° S 20:12:27 59° ESE 20:17:37 10° NNE
ALOS 2.9 20:08:52 10° SE 20:13:04 34° ENE 20:17:17 10° N
SJ-6B 3.1 20:11:11 10° SE 20:14:42 40° ENE 20:18:13 10° N
Cosmos 1898 Rocket 3.9 20:09:30 10° SSW 20:14:47 71° WNW 20:20:05 10° N
Cosmos 1844 Rocket 3.5 20:14:40 10° SSW 20:20:13 58° WNW 20:25:47 10° N
Aurora 2 Rocket 4.5 20:16:13 10° SW 20:22:29 30° SSE 20:27:02 10° ESE
Helios 1B rocket 3.9 20:22:10 10° NE 20:24:49 17° E 20:27:29 10° SE
SWIFT 4.2 20:23:06 10° SW 20:26:20 21° S 20:29:33 10° SE
Lacrosse 4 Rocket 3.3 20:24:02 10° SW 20:27:42 33° WNW 20:31:23 10° N
Cosmos 2123 Rocket 4.5 20:24:55 10° NNE 20:30:44 38° E 20:36:29 10° SSE
Cosmos 1378 3.3 20:27:51 10° N 20:31:30 49° E 20:35:07 10° SSE
Cosmos 2278 Rocket 2.2 20:26:35 10° S 20:32:11 68° ESE 20:37:50 10° NNE
NOSS 3-4 (A) 4.5 20:26:29 10° NW 20:33:35 62° WSW 20:41:04 10° SSE
NOSS 3-4 (C) 4.4 20:26:35 10° NW 20:33:41 62° WSW 20:41:11 10° SSE
HJ-1C 3.6 20:31:37 10° SSE 20:34:53 48° ENE 20:38:10 10° N
Cosmos 1758 4.4 20:32:53 10° SE 20:36:01 23° E 20:39:09 10° NE
Lacrosse 5 2.6 20:32:00 10° SW 20:36:58 56° NW 20:41:57 10° NNE
FENGYUN 3A 3.6 20:32:37 10° SSE 20:37:57 65° ENE 20:43:17 10° N
Geosat 4.0 20:33:28 10° NNE 20:38:27 63° ESE 20:43:24 10° SSW
FengYun 1-2 T 4.3 20:33:12 10° SSE 20:38:38 60° ENE 20:44:08 10° N
H-2A R/B 3.1 20:39:35 10° SSE 20:43:15 44° ENE 20:46:59 10° N
Delta 2 Rocket 4.3 20:36:34 10° W 20:43:34 59° S 20:48:17 17° ESE
CZ-3C R/B 3.3 20:37:33 10° W 20:43:50 18° SW 20:46:43 10° S
FREGAT/IRIS 3.5 20:41:00 10° S 20:43:59 51° W 20:46:59 10° NNW
Cosmos 1953 3.2 20:42:01 10° SSE 20:45:29 28° E 20:48:58 10° NNE
Cosmos 2297 4.2 20:40:39 10° SSE 20:45:47 36° ESE 20:50:58 10° NE
Meteor 1-4 Rocket 3.4 20:44:09 10° SSE 20:47:06 26° E 20:50:04 10° NE
Resurs 1-3 4.0 20:43:36 10° SE 20:47:43 42° ENE 20:51:52 10° N
SL-27 R/B 3.0 20:45:39 10° N 20:49:00 37° ENE 20:50:45 22° SE
H-2A R/B 3.2 20:46:12 10° WSW 20:50:23 74° SSE 21:09:23 16° E
Cosmos 1544 3.4 20:47:43 10° SSE 20:51:09 42° E 20:54:37 10° NNE
Stardust Del rocket 4.4 20:48:53 10° WSW 20:51:20 18° SSW 20:52:23 15° SSE
SeaSat 1 2.4 20:47:14 10° SSE 20:52:09 83° ENE 20:57:06 10° NNW
ATLAS 5 CENTAUR R/B 2.7 20:48:29 10° SSE 20:52:10 25° ESE 20:53:19 22° E
Cosmos 1707 4.2 20:50:32 10° NNW 20:54:11 40° W 20:57:48 10° SSW
Meteor 1-29 4.4 20:51:55 10° NE 20:53:40 21° ENE 20:53:40 21° ENE
Meteor 1-24 Rocket 3.7 20:52:49 10° N 20:58:22 86° E 21:04:06 10° S
Cosmos 1766 4.4 21:02:14 10° SSW 21:05:57 45° W 21:09:41 10° N
Cosmos 2082 Rocket 3.6 21:03:54 10° NNE 21:07:58 20° ENE 21:08:04 20° ENE
Cosmos 2098 Rocket 4.3 21:02:03 10° S 21:08:39 62° E 21:16:06 10° NNE
Tiangong 1 2.8 21:09:43 10° NNW 21:11:41 20° NNE 21:11:41 20° NNE
Okean 3 Rocket 3.4 21:14:50 10° N 21:19:14 77° E 21:21:32 28° SSE
RESURS DK-1 2.2 21:16:39 10° NNW 21:20:47 83° ENE 21:21:48 50° SSE
Cosmos 1867 3.5 21:18:52 10° SSW 21:24:18 89° WNW 21:29:47 10° NNE
GPS 2-05 Rocket1 2.9 21:23:21 10° WSW 21:26:55 73° NNW 21:26:55 73° NNW
Delta 168 3.9 21:24:40 10° WSW 21:26:51 26° SSW 21:26:51 26° SSW
Cosmos 372 Rocket 3.8 21:25:12 10° S 21:30:16 78° ESE 21:35:24 10° NNE
CZ-2D R/B 4.1 21:32:38 24° SSW 21:34:41 49° W 21:38:26 10° NNW
GP-B 2.9 21:35:49 74° SSE 21:36:10 82° E 21:40:36 10° N
Resurs 01 Rocket 3.1 21:34:50 10° SSW 21:38:51 35° W 21:42:54 10° NNW
Meteor 1-21 Rocket 4.2 21:36:07 10° N 21:41:57 74° E 21:43:21 53° SSE
USA 215 3.9 21:42:16 10° NNE 21:48:35 53° NW 21:54:52 10° WSW
Delta 128 4.0 21:45:02 10° WSW 21:48:35 52° SW 21:48:35 52° SW
Cosmos 1076 Rocket 3.9 21:45:44 10° N 21:49:17 58° NW 21:49:17 58° NW
Delta 2 Rocket 4.2 21:49:44 10° WNW 21:53:08 49° WNW 21:53:08 49° WNW
Cosmos 2100 Rocket 3.9 21:50:19 10° S 21:56:36 87° W 22:02:58 10° N
Envisat 3.0 21:57:27 73° NNW 21:57:27 73° NNW 22:02:02 10° NNW
Helios 1B rocket 4.5 21:56:36 10° NNW 22:00:05 27° WNW 22:03:33 10° SW
Helios 1A 4.1 22:00:31 41° W 22:00:31 41° W 22:04:23 10° NNW
CZ-3 Stage 3 3.1 21:28:32 10° W 22:02:04 87° N 22:03:54 59° E
BREEZE-M DEB (TANK) 4.2 21:59:03 10° W 22:02:23 41° NNW 22:12:27 10° NE
Cosmos 1802 Rocket 4.0 22:15:45 74° NW 22:15:45 74° NW 22:21:33 10° N
Aurora 2 Rocket 4.5 22:10:36 10° WSW 22:13:45 27° SW 22:13:45 27° SW
Cosmos 1833 Rocket 3.6 22:15:03 10° NNW 22:18:38 41° N 22:18:38 41° N
Cosmos 2061 Rocket 4.5 22:23:18 40° SW 22:25:22 58° W 22:31:41 10° N
ATLAS 5 CENTAUR R/B 3.9 22:32:44 10° WSW 22:35:09 22° W 22:35:09 22° W
ATLAS CENTAUR Rocket 4.5 12:55:04 10° SSW 22:38:43 78° SSW 22:42:07 61° SE
Cosmos 2082 Rocket 3.8 22:46:51 10° NW 22:49:57 30° NW 22:49:57 30° NW
